Wetbulb
43.05 42.62 42.43 42.43 42.53 42.80 42.67 43.00 43.45 43.84 43.91 44.05 44.29 44.72 45.36 45.88 45.88 44.07 42.48 45.27 41.66 35.98 36.56 39.18 40.53 36.91 42.38 43.86 39.16 41.02 39.81 39.67 35.20 35.03 35.47 33.59 33.98 34.39 34.15 35.53 34.95 34.22 32.93 32.30 30.25 31.17 29.73 40.78 39.02 37.13 40.69 40.12 41.83 39.95
42.59 42.29 42.12 41.98 42.15 42.14 42.41 42.84 43.17 43.24 43.60 43.86 43.95 44.46 45.22 45.56 45.95 45.15 39.52 45.21 46.12 38.49 36.98 41.72 41.49 42.31 41.95 42.70 43.73 41.64 42.49 39.13 40.63 36.90 34.74 34.07 33.41 33.40 34.39 32.04 35.47 34.85 38.04 36.24 36.48 37.29 41.40 41.31 40.37 40.97 42.67 42.86 41.08 39.43
42.23 41.68 41.63 41.82 41.75 41.69 41.80 42.33 42.59 43.48 43.46 42.93 43.40 43.80 44.86 45.03 45.29 44.72 41.69 43.69 43.09 37.84 36.06 36.81 36.18 42.11 46.18 45.27 47.28 41.72 42.77 44.42 41.91 42.38 38.70 37.51 36.53 36.63 34.04 34.71 35.28 36.32 38.18 37.84 37.13 40.15 40.03 41.37 41.69 42.67 43.07 42.72 40.82 39.28
41.43 41.24 41.38 41.50 41.32 41.43 41.81 41.96 42.34 42.77 42.71 43.02 43.64 44.10 44.30 44.82 45.22 44.47 41.36 42.71 42.57 38.97 32.24 35.93 46.29 43.76 49.32 48.81 48.41 50.19 47.95 46.82 44.92 43.40 39.94 38.10 38.68 38.06 36.38 38.42 38.20 38.45 38.39 37.09 37.17 39.16 39.63 40.95 42.18 42.69 40.03 39.23 38.06 38.16
41.00 41.11 41.06 41.19 41.19 41.19 41.47 41.72 42.14 42.38 42.44 42.51 43.30 43.99 44.22 44.66 44.11 43.80 42.41 42.64 44.03 38.33 32.96 35.88 42.17 45.44 47.33 49.04 48.10 50.00 47.77 45.83 44.46 41.91 38.36 39.43 38.16 39.10 36.22 37.50 36.67 38.50 38.49 37.81 38.45 43.11 43.48 41.81 42.19 40.95 38.40 37.65 37.48 34.96
40.62 40.97 40.66 40.77 40.89 41.24 41.39 41.69 41.82 42.29 42.57 42.94 43.56 43.42 44.14 43.97 43.79 41.81 34.86 42.03 43.64 44.10 36.38 32.29 43.50 44.07 48.12 48.25 47.74 47.72 48.28 44.80 42.37 41.57 40.96 40.42 39.85 39.59 37.50 36.44 40.92 40.90 41.59 43.47 43.02 41.86 39.46 39.53 40.17 40.24 38.16 36.55 36.14 34.62
40.17 40.18 40.33 40.66 40.98 41.15 41.61 42.09 42.02 42.34 42.45 43.23 43.71 44.14 44.36 43.48 41.71 37.29 34.64 41.32 44.73 45.00 36.31 33.11 35.66 43.14 47.34 47.79 46.58 46.19 47.21 44.06 44.17 40.88 39.75 39.10 38.67 38.66 37.52 36.32 41.77 41.17 42.01 40.88 40.49 40.21 37.33 38.92 37.25 36.80 35.11 34.10 33.71 32.46
40.04 39.84 40.38 40.99 41.03 41.56 41.81 41.94 42.37 42.28 42.91 43.19 43.24 43.43 43.75 43.01 41.71 37.48 40.15 43.77 44.55 40.76 39.15 32.46 33.78 38.00 46.38 41.56 39.22 45.00 41.23 42.27 41.10 40.71 38.67 37.29 37.86 37.64 37.00 39.75 40.64 40.95 40.64 39.20 39.52 39.12 40.62 36.09 34.45 32.92 32.63 32.07 30.10 29.15
39.95 40.44 40.71 40.84 41.44 41.67 41.97 41.97 42.21 42.62 42.49 43.34 42.91 43.10 41.14 37.87 34.09 36.36 43.12 46.07 43.73 39.48 31.61 33.33 31.98 33.50 44.21 40.96 41.34 40.14 42.26 35.07 38.23 35.94 37.74 38.56 36.83 36.16 39.60 40.19 39.21 38.86 40.36 37.76 34.34 34.43 34.59 33.44 31.57 31.45 31.54 31.10 28.90 28.09
39.94 40.20 40.24 40.89 41.34 41.61 41.99 41.98 42.77 42.32 42.69 42.92 39.80 34.57 29.24 34.23 40.76 43.68 41.20 36.20 34.31 35.19 37.13 33.14 38.39 34.83 40.84 39.04 36.50 36.72 36.97 35.17 33.79 36.69 35.96 34.26 36.48 39.70 41.11 42.44 44.31 40.13 37.34 35.61 31.71 29.90 30.85 30.26 30.59 30.44 30.70 30.98 29.45 28.54
39.40 40.03 40.51 41.29 41.54 41.86 42.00 42.33 42.54 41.47 42.11 35.75 32.01 30.67 35.15 42.57 39.24 35.63 30.80 30.37 32.10 30.47 33.44 36.24 38.45 36.75 42.96 33.24 34.80 38.85 34.43 35.11 32.87 34.66 34.93 33.28 34.36 40.75 42.93 41.50 41.95 40.42 37.93 39.31 40.70 37.64 36.23 33.48 30.86 29.89 29.09 29.00 28.50 27.90
39.41 40.25 40.81 41.35 41.62 41.86 42.12 42.30 42.06 39.50 35.96 34.93 34.76 37.33 39.71 36.83 31.68 27.73 26.15 30.78 30.80 30.63 35.33 35.91 38.30 41.12 40.82 42.36 36.94 37.76 33.78 34.10 32.75 34.21 33.89 31.68 34.82 38.75 39.96 43.06 39.88 38.97 38.20 36.75 36.28 34.68 33.71 32.63 31.71 30.18 28.71 28.25 27.93 27.25
40.22 40.78 40.98 41.40 41.48 42.06 42.17 41.77 41.38 40.07 40.33 37.84 33.77 31.30 27.54 27.42 25.30 23.13 20.84 25.40 28.50 34.77 37.72 39.37 36.77 39.91 39.78 39.42 35.22 34.65 32.46 32.16 33.39 31.78 30.92 33.85 35.68 35.91 36.77 36.88 36.51 37.61 35.61 33.78 33.32 33.05 31.97 30.61 30.43 29.14 27.77 27.59 27.42 26.40
40.42 40.87 41.28 41.37 41.50 42.05 41.76 41.64 41.75 40.95 35.90 26.77 24.73 18.00 22.72 22.72 27.04 26.32 28.90 29.23 34.05 37.49 38.78 40.28 37.20 36.20 37.38 34.46 33.73 33.35 32.42 32.32 27.68 25.75 27.95 34.18 35.42 35.75 35.65 35.40 34.17 32.60 32.59 31.56 30.68 30.45 29.87 29.41 28.51 28.41 27.09 26.06 26.19 25.72
40.59 40.85 41.23 41.17 41.65 41.90 41.63 41.58 41.78 37.41 31.19 24.63 26.98 20.06 24.28 29.57 31.56 30.85 32.82 34.48 36.50 40.75 40.61 36.80 35.68 36.17 32.70 32.17 33.24 31.06 28.82 27.12 29.00 30.41 34.53 33.49 34.24 33.68 32.89 33.03 31.76 30.38 29.26 29.69 30.19 28.66 27.24 26.89 25.74 24.68 26.12 27.56 26.29 23.52
40.90 40.70 38.71 41.05 41.69 41.87 41.67 41.31 38.92 37.10 32.01 28.71 28.16 25.58 29.31 29.79 29.91 31.11 31.85 33.68 38.90 41.44 40.76 37.92 34.43 33.16 32.78 33.18 29.68 28.38 28.86 26.53 31.33 34.23 33.36 32.45 31.74 31.74 31.17 31.37 31.22 31.01 30.43 29.61 28.55 27.49 25.58 23.52 23.02 23.95 24.00 23.25 22.44 22.43
40.47 36.93 40.54 41.26 41.42 41.55 41.37 35.47 34.35 31.31 27.89 26.88 24.29 29.04 29.00 29.36 29.39 32.16 34.18 34.95 41.95 40.21 35.42 34.03 31.87 32.63 32.92 31.52 30.23 32.25 30.27 33.04 32.44 30.78 31.90 31.70 30.51 30.12 30.71 30.69 30.30 29.85 28.80 28.28 27.58 26.71 24.49 23.89 22.78 22.40 21.02 22.11 24.26 23.15
36.03 38.38 40.88 41.43 40.86 39.63 37.07 35.64 32.38 29.93 25.17 26.71 24.70 26.72 31.38 33.09 31.68 32.22 34.69 37.51 38.99 38.74 34.20 34.30 34.08 31.32 31.01 30.24 30.00 32.58 31.24 31.19 31.52 30.50 29.97 29.88 30.00 30.33 30.26 29.54 29.30 28.95 27.98 26.94 25.51 23.76 23.13 23.05 23.58 23.92 24.12 24.17 23.12 23.40
37.68 38.90 41.13 41.40 39.41 34.13 31.60 31.63 33.05 25.73 25.98 27.61 29.76 31.47 32.81 32.67 33.02 34.24 34.72 35.35 36.30 39.05 36.87 33.32 32.58 31.53 32.36 33.78 33.92 33.63 31.07 30.01 28.00 28.42 28.78 29.79 30.00 29.18 28.91 28.89 28.48 27.38 26.21 25.61 25.69 25.54 26.08 26.58 25.95 26.07 25.67 25.85 24.28 23.96
40.54 40.95 40.92 40.93 38.74 31.26 27.43 29.74 33.37 28.31 27.10 30.23 31.87 31.65 32.23 31.45 33.56 34.06 34.36 34.53 35.44 35.76 33.80 32.97 31.80 31.76 31.60 31.89 33.22 32.59 31.13 30.01 28.26 26.03 25.98 27.47 28.52 28.33 27.74 27.62 26.81 27.04 26.86 26.57 26.15 25.78 25.84 25.96 26.66 26.63 26.21 24.93 24.01 22.47
39.59 39.52 40.39 39.13 35.52 33.33 29.16 28.23 27.06 28.56 29.83 30.71 33.03 32.49 32.10 33.03 32.06 32.14 32.28 33.41 32.70 32.87 33.12 30.89 30.89 31.59 32.92 31.89 32.69 32.37 30.58 31.10 30.05 29.41 26.55 25.37 27.99 27.71 27.11 27.11 27.74 27.39 26.37 26.14 25.72 25.43 26.29 26.10 26.80 26.62 25.63 25.12 24.40 23.57
37.70 40.05 36.53 36.92 32.19 31.64 31.77 33.32 29.78 32.01 31.11 31.18 32.28 32.46 31.68 30.79 31.10 31.09 31.14 30.35 29.30 29.74 31.53 31.73 30.95 30.66 30.03 29.91 30.30 31.36 31.11 30.57 30.18 28.73 27.97 27.32 25.06 25.10 25.70 27.00 27.21 26.31 26.53 26.60 26.46 25.94 25.95 26.36 26.37 25.47 23.93 22.39 22.01 21.21
38.30 36.51 33.47 33.54 29.95 29.52 28.02 33.94 30.33 31.19 28.83 29.23 31.69 29.23 28.92 28.96 29.99 32.16 28.89 29.13 29.20 31.06 31.74 31.12 30.18 30.47 29.19 29.51 29.76 29.96 30.28 29.42 27.72 27.56 27.66 27.35 27.38 27.56 27.57 27.80 27.83 25.88 24.97 25.68 26.64 26.33 25.60 23.31 22.43 23.54 22.33 22.23 21.34 19.32
36.83 31.39 28.09 27.10 27.60 23.37 29.88 28.60 31.28 30.94 30.73 29.28 28.79 26.42 26.84 27.55 29.81 28.56 26.77 26.91 28.60 30.18 29.85 29.24 29.64 28.25 28.92 28.78 27.72 28.08 29.00 29.55 28.12 27.45 27.84 26.71 25.34 25.97 27.04 26.69 27.39 27.29 26.99 26.67 25.72 24.49 24.23 23.05 20.85 22.37 21.05 20.15 19.00 17.78
26.95 25.49 26.77 22.58 27.19 25.52 23.63 25.92 27.39 26.89 23.45 24.99 24.14 24.39 26.78 28.54 26.72 25.83 27.02 25.91 27.93 28.31 28.65 29.68 29.57 29.48 27.85 27.56 27.92 28.06 29.57 28.82 26.89 25.67 27.82 28.10 26.43 25.99 25.77 26.26 26.45 26.90 27.26 25.12 23.11 22.03 21.77 22.00 20.80 19.79 19.04 18.37 16.67 16.17
20.54 23.54 23.83 21.38 23.07 24.14 20.86 19.19 21.63 22.23 23.51 23.28 24.18 27.38 28.18 25.73 26.28 27.49 24.59 27.95 29.11 29.11 29.30 29.30 28.87 28.32 27.92 28.57 26.68 26.87 28.00 30.11 29.02 26.30 26.93 28.23 27.53 25.56 23.80 22.85 22.84 23.76 27.20 25.87 22.92 20.96 20.18 19.64 18.72 17.58 16.96 15.85 13.61 15.37
19.00 18.25 25.84 29.28 27.53 26.62 24.36 24.61 24.64 23.27 22.46 23.82 24.23 22.86 24.21 28.74 27.47 23.37 24.08 30.13 30.82 31.60 32.24 32.18 30.98 29.96 28.41 28.16 28.60 28.78 30.02 30.53 29.36 28.24 29.02 28.87 28.78 28.69 27.35 25.05 23.86 24.29 25.36 24.90 23.64 22.12 20.13 19.39 18.41 17.89 16.60 16.36 16.09 15.96
23.95 24.09 23.47 25.88 23.76 25.02 21.74 21.78 22.48 22.43 24.14 26.09 24.49 22.21 25.16 25.44 24.65 24.11 27.90 31.08 31.61 31.99 31.58 31.54 31.41 30.79 30.03 29.20 28.76 27.20 26.39 26.09 25.83 26.15 26.03 25.00 25.40 26.45 26.12 25.97 24.99 24.92 24.92 24.11 23.39 22.43 21.38 20.10 18.62 16.97 16.18 15.77 13.27 13.17
21.93 25.91 23.29 16.28 17.98 18.68 19.93 20.74 22.61 23.49 24.48 24.42 24.05 21.45 21.10 26.14 27.27 28.67 29.57 30.67 31.55 30.71 28.95 27.80 27.26 28.35 27.77 27.97 27.82 27.28 27.19 27.32 25.18 22.93 22.41 21.17 22.01 21.60 25.15 24.64 23.98 24.14 23.27 22.29 21.52 21.18 20.49 19.70 18.82 18.10 17.19 16.60 14.47 9.54
22.38 24.25 16.36 13.40 15.14 16.57 20.36 22.04 22.42 24.85 24.57 24.80 26.95 27.15 26.36 26.94 28.70 30.83 30.43 30.27 29.28 28.54 28.51 27.47 27.22 27.13 25.57 25.44 24.87 26.39 29.00 30.18 29.80 27.02 23.56 23.08 23.96 22.72 23.90 23.30 22.59 22.52 22.66 21.74 20.46 18.63 17.16 15.21 14.38 12.90 11.77 10.36 10.42 9.90
24.15 20.47 17.36 17.13 17.31 21.84 23.52 25.55 26.82 26.46 23.64 25.70 23.92 25.15 24.18 26.28 28.47 29.20 29.41 30.04 29.45 28.67 27.11 26.30 26.62 27.60 26.85 26.36 26.11 25.44 25.13 27.03 28.41 28.06 26.98 23.77 23.96 24.09 23.60 23.24 22.90 22.56 21.40 19.25 17.83 17.63 15.71 15.94 15.41 13.64 12.77 11.65 10.42 10.67
16.29 13.04 14.21 12.96 19.37 25.20 27.67 26.16 25.31 24.59 25.23 25.08 25.08 25.79 23.91 24.24 22.92 26.16 29.24 29.77 28.56 27.20 27.35 27.10 26.43 26.64 28.95 29.97 30.35 29.87 28.74 26.76 25.35 24.75 24.53 24.87 24.79 24.30 23.29 22.49 21.86 21.36 20.29 19.05 18.21 16.51 16.27 14.96 14.25 13.81 12.84 12.53 11.41 10.62
15.30 13.49 13.19 15.49 15.42 17.97 22.35 24.37 21.80 21.39 21.42 20.79 20.96 21.02 16.33 18.60 20.38 24.05 27.95 30.97 30.32 28.97 28.22 28.98 30.26 30.37 30.26 28.50 27.11 26.45 26.25 26.64 26.38 26.52 25.66 24.92 23.23 22.97 22.98 22.42 21.86 20.74 18.99 17.51 16.60 15.94 14.37 13.30 13.20 12.67 12.62 12.53 11.14 10.14
MSLP
1014.71 1015.33 1015.87 1016.42 1016.94 1017.44 1017.96 1018.42 1018.89 1019.41 1019.92 1020.44 1020.92 1021.43 1021.80 1022.10 1022.52 1023.18 1023.41 1023.48 1023.64 1023.46 1022.71 1022.11 1021.81 1021.19 1019.36 1018.76 1019.13 1019.39 1020.08 1020.69 1021.04 1021.53 1021.02 1020.93 1020.80 1020.65 1020.64 1020.72 1020.99 1021.14 1022.07 1022.71 1022.90 1022.14 1020.42 1019.18 1019.83 1019.95 1019.95 1020.69 1021.26 1022.20
1013.88 1014.55 1015.13 1015.71 1016.24 1016.74 1017.19 1017.63 1018.18 1018.73 1019.28 1019.83 1020.42 1020.83 1021.12 1021.45 1021.93 1022.55 1023.07 1023.07 1023.33 1023.53 1022.60 1022.14 1021.46 1020.80 1020.59 1019.62 1019.44 1018.80 1018.79 1019.09 1019.52 1020.52 1020.70 1020.45 1020.55 1020.60 1020.17 1020.56 1020.67 1020.64 1020.20 1020.54 1020.79 1019.82 1019.13 1019.21 1019.23 1019.67 1020.11 1020.68 1021.74 1022.62
1013.13 1013.78 1014.36 1014.95 1015.51 1016.00 1016.51 1017.00 1017.52 1018.09 1018.68 1019.32 1019.82 1020.16 1020.50 1020.98 1021.51 1022.19 1022.65 1022.73 1023.29 1023.13 1022.42 1021.68 1019.65 1018.55 1018.85 1019.00 1019.04 1018.99 1018.22 1017.96 1019.15 1019.51 1019.60 1019.27 1019.39 1019.51 1019.69 1019.54 1019.83 1019.92 1019.85 1019.82 1020.09 1018.89 1019.12 1019.30 1019.69 1020.11 1020.60 1021.16 1022.14 1023.08
1012.34 1012.99 1013.58 1014.21 1014.81 1015.39 1015.91 1016.43 1016.96 1017.53 1018.15 1018.70 1019.12 1019.50 1020.01 1020.63 1021.20 1021.77 1022.31 1022.42 1022.64 1022.69 1022.11 1019.81 1018.57 1018.47 1017.57 1017.62 1017.92 1017.93 1017.15 1017.65 1018.37 1018.99 1019.35 1018.99 1018.54 1018.61 1018.72 1018.42 1018.56 1018.91 1019.32 1019.21 1019.16 1018.90 1019.32 1019.45 1019.68 1020.31 1021.30 1022.04 1023.04 1024.25
1011.57 1012.23 1012.90 1013.55 1014.19 1014.82 1015.38 1015.95 1016.51 1017.11 1017.67 1018.15 1018.58 1019.04 1019.67 1020.36 1020.96 1021.52 1022.01 1022.02 1022.07 1022.51 1021.30 1020.05 1018.63 1016.94 1016.66 1016.94 1016.94 1016.93 1017.21 1017.62 1018.32 1019.27 1019.36 1018.76 1018.08 1018.32 1018.89 1018.58 1018.12 1018.04 1017.83 1018.10 1017.67 1017.47 1017.94 1018.69 1019.43 1020.63 1021.58 1022.66 1023.64 1024.29
1010.84 1011.53 1012.26 1012.97 1013.63 1014.28 1014.90 1015.49 1016.10 1016.67 1017.20 1017.65 1018.16 1018.84 1019.45 1019.85 1020.69 1021.47 1021.98 1021.36 1021.48 1022.01 1022.07 1020.50 1018.08 1016.65 1016.12 1016.17 1016.36 1016.48 1017.06 1017.49 1017.82 1018.35 1018.81 1018.46 1017.78 1017.48 1017.92 1017.69 1016.41 1016.33 1016.44 1016.51 1017.06 1017.77 1018.84 1019.70 1020.57 1021.31 1022.16 1023.38 1024.39 1025.32
1010.16 1010.91 1011.63 1012.36 1013.07 1013.75 1014.39 1015.04 1015.66 1016.24 1016.77 1017.30 1017.82 1018.46 1018.96 1019.78 1020.53 1020.59 1020.70 1020.75 1020.79 1021.47 1021.65 1020.40 1017.93 1016.08 1015.58 1015.52 1015.78 1016.25 1016.72 1017.28 1017.65 1018.58 1018.67 1018.22 1017.91 1017.42 1017.06 1016.55 1015.45 1015.80 1016.26 1017.05 1017.64 1018.33 1019.97 1020.50 1021.20 1022.29 1023.13 1024.36 1025.44 1026.58
1009.48 1010.24 1010.94 1011.72 1012.50 1013.18 1013.90 1014.58 1015.22 1015.87 1016.51 1017.08 1017.72 1018.27 1018.97 1019.71 1020.40 1020.46 1019.73 1020.21 1020.70 1020.97 1020.93 1019.66 1017.44 1016.47 1015.40 1015.10 1015.42 1015.79 1016.46 1017.00 1017.55 1017.99 1018.42 1018.07 1018.03 1017.40 1016.39 1015.26 1014.99 1015.51 1016.53 1017.45 1018.05 1018.45 1018.89 1020.52 1021.94 1023.25 1024.15 1025.03 1026.23 1027.45
1008.79 1009.54 1010.34 1011.17 1011.90 1012.66 1013.40 1014.10 1014.78 1015.53 1016.20 1016.97 1017.72 1018.34 1018.91 1019.59 1020.07 1019.60 1019.50 1019.91 1020.59 1020.68 1019.59 1018.33 1016.94 1015.88 1015.27 1014.99 1015.00 1015.78 1015.52 1017.06 1017.97 1017.69 1017.84 1017.71 1017.04 1015.86 1014.38 1014.37 1014.86 1015.35 1015.63 1017.12 1018.69 1019.46 1020.41 1021.04 1022.40 1023.61 1024.55 1025.76 1026.42 1028.08
1008.09 1008.82 1009.68 1010.53 1011.35 1012.15 1012.89 1013.63 1014.46 1015.25 1016.13 1016.91 1017.83 1018.52 1019.11 1019.05 1018.57 1018.74 1019.60 1019.94 1020.29 1019.70 1018.28 1016.83 1016.31 1015.59 1015.47 1015.28 1014.88 1015.27 1016.02 1016.90 1017.53 1017.44 1017.67 1017.31 1015.42 1014.39 1013.84 1013.65 1013.93 1015.11 1016.05 1016.93 1018.49 1020.33 1021.25 1022.08 1022.78 1023.83 1024.90 1026.01 1026.86 1028.20
1007.48 1008.29 1009.13 1009.96 1010.86 1011.69 1012.55 1013.36 1014.28 1015.33 1015.96 1017.00 1017.54 1018.04 1017.86 1017.76 1018.27 1018.64 1018.95 1019.21 1018.74 1017.69 1016.43 1015.23 1014.93 1014.88 1015.23 1015.59 1014.99 1015.00 1015.65 1016.16 1016.49 1016.73 1016.81 1016.07 1014.54 1012.72 1013.07 1013.44 1013.90 1014.71 1015.66 1016.10 1016.45 1017.86 1019.18 1019.86 1021.73 1023.61 1025.45 1026.66 1027.81 1028.95
1006.96 1007.94 1008.71 1009.58 1010.51 1011.40 1012.27 1013.11 1014.09 1015.10 1015.55 1015.78 1016.25 1017.24 1017.61 1017.64 1017.86 1018.15 1018.24 1017.66 1016.82 1015.10 1013.54 1013.00 1013.65 1013.92 1014.21 1014.82 1014.46 1015.01 1015.25 1015.71 1015.87 1016.13 1016.26 1015.13 1012.76 1011.75 1011.88 1012.15 1013.27 1014.40 1015.62 1016.74 1017.42 1018.65 1020.17 1021.49 1022.72 1024.12 1025.60 1027.08 1028.37 1029.63
1006.53 1007.49 1008.32 1009.31 1010.26 1011.14 1012.01 1012.89 1014.05 1014.71 1014.99 1015.69 1016.34 1016.88 1016.72 1017.15 1017.10 1016.74 1016.27 1015.55 1014.63 1013.12 1012.16 1012.05 1013.51 1013.30 1014.14 1014.03 1014.09 1014.50 1014.70 1015.35 1015.59 1015.77 1015.22 1013.40 1011.71 1011.92 1012.22 1012.87 1013.99 1015.09 1016.22 1017.32 1018.56 1019.80 1021.25 1022.51 1023.85 1024.71 1026.40 1028.01 1029.14 1030.36
1006.24 1007.14 1008.05 1009.12 1010.08 1010.91 1011.85 1012.87 1013.83 1014.27 1014.76 1015.79 1016.46 1016.99 1016.41 1015.83 1015.16 1014.24 1013.23 1012.58 1012.09 1011.85 1011.59 1011.39 1012.31 1013.03 1013.63 1013.64 1014.10 1014.54 1015.23 1015.46 1015.81 1015.45 1014.25 1012.08 1011.36 1012.33 1012.77 1013.52 1014.27 1015.79 1017.04 1018.02 1019.47 1020.83 1022.05 1023.27 1024.85 1026.18 1027.32 1028.57 1029.58 1030.90
1005.99 1006.99 1008.02 1009.10 1009.92 1010.85 1011.75 1012.85 1013.60 1014.34 1015.03 1015.86 1016.11 1015.82 1014.85 1013.88 1013.98 1013.61 1012.93 1012.63 1011.63 1011.39 1011.30 1011.87 1012.17 1012.53 1013.32 1013.80 1014.05 1014.53 1014.81 1014.73 1014.28 1013.15 1012.23 1011.48 1011.74 1012.66 1013.61 1014.28 1015.20 1016.50 1017.66 1019.03 1020.44 1021.65 1022.90 1024.22 1025.59 1027.21 1028.57 1029.45 1030.50 1031.69
1005.86 1007.14 1008.01 1008.89 1009.90 1010.96 1012.02 1013.09 1013.91 1014.62 1015.33 1015.53 1015.25 1014.66 1014.05 1013.81 1013.58 1013.55 1012.73 1012.04 1011.26 1010.72 1011.15 1011.52 1011.91 1012.43 1012.86 1013.13 1013.84 1013.75 1013.84 1013.36 1012.45 1012.08 1011.92 1012.17 1012.69 1013.89 1014.64 1015.29 1016.28 1017.32 1018.39 1019.76 1021.39 1022.43 1023.67 1025.08 1026.36 1027.96 1029.48 1030.51 1031.49 1032.38
1005.71 1006.20 1007.43 1008.81 1010.06 1011.25 1012.28 1013.47 1014.26 1014.87 1015.13 1015.09 1014.56 1014.28 1014.02 1013.81 1013.65 1013.18 1012.90 1012.01 1011.03 1010.62 1010.55 1011.21 1011.46 1011.50 1012.13 1012.29 1012.75 1012.49 1012.18 1011.44 1011.42 1012.29 1012.90 1013.56 1014.05 1014.51 1015.29 1016.20 1017.29 1018.37 1019.79 1021.04 1022.01 1023.50 1024.94 1026.25 1027.43 1028.69 1030.09 1031.63 1032.27 1033.33
1005.68 1006.30 1007.42 1008.90 1010.17 1011.77 1012.76 1013.35 1013.84 1014.32 1014.42 1014.26 1014.02 1013.67 1013.49 1013.28 1012.97 1012.59 1012.29 1011.80 1011.34 1010.36 1010.79 1010.29 1010.55 1011.12 1010.89 1010.49 1010.80 1011.10 1011.32 1012.24 1012.81 1013.04 1013.65 1014.80 1015.36 1015.71 1016.41 1017.12 1018.43 1019.59 1020.71 1021.89 1023.01 1024.49 1025.67 1026.74 1027.93 1029.31 1030.57 1031.74 1032.82 1033.88
1005.23 1006.26 1007.48 1009.00 1010.17 1011.31 1012.30 1013.18 1013.35 1013.61 1013.70 1013.57 1013.30 1012.95 1012.74 1012.36 1011.91 1011.63 1011.35 1011.14 1011.10 1010.99 1010.41 1010.51 1010.32 1009.99 1009.95 1009.88 1009.74 1010.20 1010.94 1011.84 1013.21 1014.39 1015.45 1015.70 1016.02 1016.56 1017.63 1018.47 1019.49 1020.54 1021.51 1022.72 1023.81 1024.96 1026.12 1027.00 1028.02 1029.38 1030.68 1031.78 1032.78 1033.92
1005.59 1006.74 1008.00 1009.47 1010.44 1011.35 1012.13 1012.60 1012.87 1013.12 1012.88 1012.59 1012.29 1011.92 1011.67 1011.46 1011.03 1010.73 1010.48 1010.63 1011.34 1010.62 1010.41 1010.56 1009.91 1009.89 1009.97 1010.06 1009.89 1010.05 1010.62 1011.75 1012.75 1014.45 1015.89 1016.76 1017.39 1017.73 1018.38 1019.15 1020.15 1021.01 1022.54 1023.96 1024.87 1025.77 1026.89 1028.21 1029.32 1030.11 1031.02 1032.06 1032.94 1033.97
1006.25 1007.53 1009.04 1009.91 1010.76 1010.97 1011.20 1011.84 1012.15 1011.85 1011.83 1011.93 1011.15 1011.09 1010.82 1010.51 1010.34 1010.16 1009.94 1010.33 1010.50 1009.99 1010.33 1010.32 1010.48 1010.62 1010.87 1010.80 1010.60 1011.22 1011.17 1011.61 1012.46 1012.99 1014.41 1016.20 1017.54 1018.28 1019.22 1020.40 1021.02 1021.70 1022.72 1024.26 1025.34 1026.63 1027.44 1028.39 1029.49 1030.55 1031.61 1032.58 1033.43 1034.20
1006.14 1007.70 1009.14 1010.42 1010.90 1011.07 1011.10 1011.01 1010.90 1010.69 1011.22 1010.77 1010.50 1010.41 1010.36 1010.21 1009.94 1009.82 1009.90 1009.91 1009.90 1010.17 1010.58 1010.79 1011.10 1011.25 1011.18 1011.59 1011.85 1011.30 1011.84 1012.65 1013.66 1014.71 1016.05 1016.80 1017.74 1018.81 1019.75 1020.87 1021.45 1022.24 1023.54 1024.80 1025.58 1026.62 1028.03 1029.16 1030.16 1031.14 1032.03 1033.15 1033.95 1034.73
1006.37 1008.09 1009.35 1010.05 1010.65 1010.92 1010.58 1010.09 1010.04 1009.91 1009.97 1009.60 1009.80 1010.10 1010.16 1009.94 1009.61 1009.65 1009.76 1009.81 1010.12 1010.31 1010.56 1010.78 1011.49 1011.42 1011.68 1012.07 1011.80 1012.93 1013.35 1013.70 1014.65 1015.57 1016.44 1017.44 1018.52 1019.55 1020.27 1021.25 1021.95 1022.65 1024.12 1025.53 1026.46 1027.34 1028.54 1029.94 1031.00 1031.69 1032.71 1033.53 1034.22 1035.28
1006.79 1008.00 1009.02 1009.66 1009.67 1010.10 1009.89 1009.41 1009.22 1008.95 1008.86 1008.85 1009.05 1009.12 1009.42 1009.36 1009.28 1009.47 1009.82 1010.09 1010.36 1010.60 1010.91 1011.34 1011.26 1012.16 1012.50 1012.54 1013.65 1014.14 1014.27 1014.41 1015.22 1016.39 1017.22 1017.82 1018.99 1020.37 1021.07 1021.89 1022.93 1023.65 1024.08 1025.54 1026.93 1028.14 1029.42 1030.74 1031.68 1032.23 1033.00 1033.78 1034.61 1035.50
1006.89 1008.65 1008.85 1009.09 1009.23 1009.50 1009.18 1009.01 1008.84 1008.90 1008.80 1008.76 1008.91 1008.96 1008.63 1008.72 1008.81 1009.54 1009.55 1009.90 1010.28 1010.67 1011.02 1011.26 1011.64 1011.84 1012.87 1014.14 1014.82 1014.95 1015.12 1015.42 1015.75 1016.46 1017.82 1018.39 1019.17 1020.76 1022.08 1023.00 1023.87 1024.23 1024.93 1025.92 1027.76 1028.89 1030.21 1031.31 1031.96 1032.60 1033.28 1034.05 1034.96 1035.94
1007.04 1007.96 1008.17 1008.09 1008.52 1008.52 1008.30 1008.46 1008.52 1008.61 1008.61 1008.64 1008.67 1008.66 1008.50 1008.62 1008.78 1008.68 1008.49 1008.64 1009.33 1009.77 1010.22 1010.57 1010.88 1012.02 1013.26 1013.56 1014.19 1014.53 1014.98 1015.59 1016.05 1016.89 1018.25 1018.87 1019.30 1019.90 1021.51 1022.85 1024.14 1025.69 1026.03 1026.64 1027.63 1029.14 1030.49 1031.39 1032.21 1032.77 1033.58 1034.53 1035.41 1036.06
1007.31 1007.69 1007.66 1007.67 1007.71 1007.91 1008.20 1008.35 1008.45 1008.36 1008.18 1008.01 1008.25 1008.86 1008.47 1008.02 1008.27 1008.42 1008.22 1008.44 1008.97 1009.18 1009.74 1010.30 1010.86 1011.55 1012.26 1013.35 1014.52 1014.94 1015.50 1016.14 1016.74 1017.39 1018.45 1019.54 1020.34 1020.63 1020.58 1021.58 1023.36 1024.99 1026.22 1027.18 1028.25 1029.14 1030.12 1031.35 1032.24 1032.88 1033.97 1035.02 1035.62 1035.88
1006.95 1007.37 1007.50 1007.92 1008.03 1007.94 1008.03 1008.08 1008.00 1007.97 1007.71 1007.74 1008.17 1008.13 1007.22 1007.35 1008.03 1008.57 1008.61 1008.62 1008.82 1009.50 1010.32 1011.04 1011.51 1012.19 1013.05 1013.76 1013.52 1014.69 1016.12 1017.11 1018.04 1018.82 1019.78 1021.06 1021.78 1021.99 1022.41 1023.22 1024.20 1025.48 1026.64 1027.65 1028.48 1029.32 1030.27 1031.17 1032.15 1033.30 1034.23 1035.03 1035.68 1036.10
1007.39 1007.48 1007.67 1008.63 1008.62 1008.70 1008.74 1008.82 1008.55 1008.26 1008.25 1007.83 1007.42 1007.70 1007.91 1008.13 1008.33 1008.36 1008.73 1008.93 1009.27 1009.86 1010.83 1011.62 1012.66 1013.28 1013.90 1014.24 1014.47 1015.24 1015.88 1016.46 1017.08 1018.46 1019.55 1021.22 1022.38 1023.71 1023.77 1024.16 1025.24 1026.37 1027.48 1028.24 1028.82 1029.56 1030.34 1031.35 1032.48 1033.42 1034.40 1035.14 1035.82 1036.25
1007.75 1007.96 1008.50 1009.16 1009.16 1009.23 1009.16 1009.10 1008.79 1008.77 1008.59 1007.94 1007.88 1008.30 1008.70 1008.93 1009.00 1008.90 1009.02 1009.14 1009.51 1010.18 1010.99 1011.74 1012.43 1012.93 1013.40 1013.83 1014.82 1016.01 1016.57 1016.83 1017.17 1017.25 1018.25 1019.82 1021.26 1023.04 1023.91 1024.74 1025.79 1026.79 1027.47 1028.29 1029.44 1030.64 1031.75 1032.72 1033.64 1034.50 1035.19 1035.65 1036.07 1036.36
1007.80 1008.18 1008.83 1009.36 1009.51 1009.37 1009.23 1008.97 1008.68 1008.41 1008.32 1008.49 1008.60 1008.92 1009.33 1009.45 1009.44 1009.60 1009.64 1009.75 1010.15 1010.64 1011.05 1011.85 1012.56 1013.27 1013.65 1014.10 1014.31 1015.22 1016.62 1017.35 1017.60 1018.25 1018.90 1020.49 1021.90 1022.88 1023.97 1024.96 1025.77 1026.60 1027.50 1028.53 1029.75 1030.77 1031.78 1032.74 1033.57 1034.20 1034.71 1035.18 1035.66 1035.99
1007.93 1008.34 1008.83 1009.35 1009.38 1008.87 1008.40 1008.50 1008.78 1009.03 1009.28 1009.34 1009.44 1009.31 1009.38 1009.54 1010.14 1010.31 1010.22 1010.21 1010.53 1010.81 1011.21 1011.65 1012.36 1013.17 1013.71 1014.17 1014.73 1015.34 1015.98 1017.17 1018.08 1018.81 1019.42 1020.57 1021.92 1023.07 1024.10 1025.00 1025.85 1026.80 1027.90 1028.95 1029.99 1030.90 1031.64 1032.50 1033.22 1033.79 1034.30 1034.77 1035.20 1035.71
1008.58 1008.81 1009.06 1009.17 1009.42 1009.28 1009.08 1009.06 1009.43 1009.65 1009.81 1010.15 1010.52 1010.84 1011.24 1011.22 1011.05 1010.76 1010.71 1010.47 1010.33 1010.52 1011.10 1011.60 1012.27 1012.95 1013.71 1014.45 1015.15 1016.05 1016.87 1017.68 1018.54 1019.20 1019.84 1020.54 1021.55 1022.97 1024.20 1025.14 1026.05 1027.03 1028.05 1029.15 1030.14 1030.93 1031.77 1032.46 1032.92 1033.41 1033.91 1034.39 1034.92 1035.46
Wind_Speed
21 20 19 19 18 18 20 21 21 21 20 18 17 16 16 16 16 7 2 4 6 3 9 10 7 13 7 3 5 3 5 1 2 1 3 4 3 6 3 5 6 7 7 4 3 2 8 7 6 6 3 3 5 4
20 20 20 19 19 19 20 21 21 21 20 18 17 17 16 16 17 11 2 3 4 4 5 5 13 15 12 15 4 3 5 6 4 3 2 4 3 3 5 4 0 4 6 7 9 6 0 5 2 2 5 5 5 7
20 21 20 19 19 20 20 20 21 20 19 18 18 17 17 15 13 12 3 3 3 2 5 7 13 15 9 17 11 3 2 4 4 2 3 2 4 4 6 5 3 4 4 3 3 4 7 6 4 5 4 4 8 12
21 21 20 19 20 20 19 19 19 19 18 18 17 17 16 15 15 13 4 2 3 2 4 7 6 7 8 12 13 11 4 4 5 2 1 3 4 4 5 3 3 2 10 6 4 4 2 7 8 10 8 12 16 14
21 20 20 19 19 19 19 19 18 18 18 18 17 17 17 17 17 8 2 3 3 3 3 4 13 14 11 10 13 10 5 5 4 2 2 3 3 5 1 2 3 7 8 7 6 7 4 2 12 13 16 16 17 21
22 21 20 20 20 20 19 19 18 17 16 16 17 17 17 20 15 4 1 4 7 4 3 4 4 6 4 9 10 14 8 3 3 3 2 3 2 2 5 5 4 11 8 4 4 6 5 9 11 9 16 16 16 17
22 22 21 21 20 20 20 19 18 17 17 15 16 19 19 17 7 4 4 2 6 6 2 4 5 3 5 4 3 5 5 2 3 3 3 2 2 2 3 5 4 10 9 6 10 14 7 9 7 13 18 19 20 18
22 23 22 21 21 21 21 20 19 19 18 16 16 15 18 17 5 4 2 6 5 4 4 4 5 3 3 3 3 3 4 3 2 3 1 1 1 1 4 6 3 5 9 8 10 4 7 16 18 18 18 20 21 18
22 22 22 22 22 22 22 21 20 21 18 17 18 17 5 2 3 4 8 12 4 4 4 4 4 4 2 1 3 2 3 3 1 3 2 4 2 6 7 6 9 12 13 15 11 13 16 19 20 19 20 19 22 18
23 25 24 23 24 23 22 21 22 20 18 20 6 2 2 5 7 6 4 2 3 4 4 4 3 4 1 2 2 3 1 4 4 3 5 5 4 8 5 7 8 12 16 20 19 12 15 17 18 20 19 16 18 19
25 24 25 25 25 24 23 22 24 22 15 2 3 3 2 4 3 2 4 4 4 5 7 6 7 4 4 3 2 1 3 3 5 4 5 4 6 15 13 10 9 14 19 17 4 11 16 22 23 20 19 19 18 19
26 26 26 25 25 24 23 24 26 12 4 8 6 4 3 3 2 5 5 4 6 6 5 10 4 4 3 3 2 2 3 2 5 6 4 4 6 9 11 17 13 15 16 12 15 18 18 19 19 19 19 18 19 18
26 26 26 25 26 26 25 26 26 10 12 3 3 3 4 3 6 9 10 6 5 4 6 7 5 4 4 2 3 2 3 2 5 2 5 7 2 3 6 10 14 13 15 17 18 19 20 20 19 21 20 18 20 18
26 26 26 27 26 26 25 29 23 14 5 3 4 5 5 6 6 7 7 8 6 3 6 11 4 3 3 2 3 4 2 5 2 5 7 5 7 7 9 11 17 18 18 20 20 21 23 21 19 18 17 17 17 17
28 26 26 26 27 27 27 28 24 3 3 4 4 6 8 3 4 4 3 3 3 5 8 3 3 3 2 3 1 3 3 4 6 6 6 1 6 11 12 14 17 17 18 19 19 20 21 21 20 18 15 16 16 14
29 24 17 26 27 27 29 23 6 2 2 3 4 4 3 1 2 4 4 5 4 7 6 2 3 3 2 5 4 8 7 7 5 4 1 6 11 11 12 14 15 16 18 19 17 19 19 19 20 18 15 14 13 14
30 3 26 29 29 30 27 5 3 4 4 4 5 3 3 2 4 2 3 5 4 8 6 3 6 8 4 4 5 6 6 3 2 3 4 7 11 13 15 16 16 17 18 19 20 19 18 18 18 18 18 13 14 13
7 13 31 29 25 20 3 1 3 5 5 5 4 2 3 3 2 3 3 3 7 5 2 5 5 5 6 8 3 4 3 2 4 6 8 10 11 14 13 18 17 18 19 18 18 18 19 19 18 14 18 16 14 13
13 19 33 33 14 5 4 3 3 4 5 2 3 2 2 3 4 7 6 6 5 6 4 1 4 5 5 4 4 4 6 5 6 7 7 11 13 16 16 16 18 18 18 19 19 14 13 15 14 13 12 12 10 10
28 32 34 26 12 3 4 3 4 3 3 3 4 5 4 4 5 4 5 3 7 4 3 5 4 1 1 1 1 1 7 11 13 12 10 9 10 15 16 15 13 18 16 16 14 16 13 12 10 11 11 11 10 10
27 23 28 14 2 2 3 5 3 4 3 4 3 3 4 2 3 4 6 4 5 3 3 2 1 1 2 1 2 6 10 10 8 5 14 13 10 12 12 13 14 14 14 12 12 12 12 11 10 10 10 9 8 8
12 24 6 4 1 1 1 5 3 3 4 3 3 2 3 3 3 3 2 3 2 2 2 3 3 3 4 6 4 7 10 13 14 13 15 15 13 13 13 12 13 13 12 11 12 12 11 10 10 10 10 9 9 9
19 6 3 3 5 5 5 3 5 5 6 5 5 5 4 3 2 2 1 0 1 0 2 4 5 7 9 8 13 10 11 15 12 12 12 11 11 11 12 11 11 14 12 10 10 11 11 12 11 10 10 10 10 9
9 4 5 6 5 5 2 4 3 3 2 3 4 4 2 3 2 2 2 1 1 3 4 9 9 9 8 10 7 8 8 10 12 11 11 14 13 10 10 11 9 9 11 12 11 11 10 9 11 10 10 10 9 9
9 6 5 4 2 5 5 5 4 2 4 3 3 3 4 2 3 2 5 5 5 5 6 6 6 7 9 8 7 7 9 9 12 14 10 11 14 11 10 9 9 10 12 14 12 12 11 9 9 10 10 10 10 10
5 5 7 9 4 4 5 5 6 6 3 5 2 1 1 3 4 6 6 8 6 9 11 11 10 10 7 6 9 9 9 9 11 12 10 10 12 15 14 14 12 8 6 10 14 14 13 11 10 12 10 9 8 10
4 5 4 2 2 3 3 2 2 2 4 5 3 1 5 5 5 3 1 3 6 6 8 8 8 9 11 11 8 7 8 8 8 9 10 8 8 9 13 16 17 11 11 13 12 14 15 12 11 10 9 7 8 8
2 4 7 4 2 1 3 1 3 5 3 2 5 7 6 5 3 2 2 2 6 9 8 7 6 8 8 10 12 13 11 13 14 14 13 11 8 7 10 10 11 18 12 11 12 11 11 11 11 11 10 9 7 5
1 1 4 4 2 2 2 2 2 0 1 2 2 0 2 1 1 1 2 6 8 10 10 10 9 9 9 9 10 10 12 14 21 24 21 12 9 5 6 12 12 10 10 10 13 12 13 11 10 9 9 7 7 6
3 2 4 3 3 1 1 2 1 1 2 1 2 2 2 2 2 1 5 7 8 8 9 9 9 10 12 13 13 11 7 8 9 13 16 16 12 11 11 12 12 11 10 12 12 12 14 11 11 6 7 6 5 5
3 3 4 2 3 2 3 3 2 1 2 4 3 3 2 2 2 3 3 3 7 9 11 10 8 8 10 11 13 14 10 2 8 10 13 12 13 12 12 12 11 11 11 13 12 11 11 9 8 9 9 8 8 6
2 3 5 4 2 0 1 2 2 2 2 1 2 3 4 4 2 1 1 5 7 8 10 11 11 10 9 8 8 5 11 10 11 13 20 15 13 13 13 11 11 11 12 12 11 11 13 12 9 9 9 9 8 8
3 2 3 4 3 2 2 3 3 2 3 2 2 2 2 3 4 3 1 3 7 8 9 8 8 9 11 10 11 11 12 10 14 16 20 21 22 18 12 11 11 12 14 11 11 11 12 12 10 9 8 8 7 7
Wind_Direction
220 223 222 226 226 226 228 228 225 222 219 222 224 227 233 225 214 174 204 199 188 234 267 263 270 285 331 148 152 138 79 291 58 209 184 179 158 194 143 152 182 158 147 173 114 171 260 160 105 201 141 145 138 118
219 220 221 222 225 228 227 224 220 216 216 218 221 227 227 212 204 173 196 168 215 218 275 303 272 258 260 256 296 216 176 148 193 123 222 125 133 167 155 190 49 192 184 176 194 208 239 190 109 127 157 146 151 129
217 219 220 221 224 227 227 222 215 211 212 215 222 227 213 197 195 183 163 164 169 286 290 254 261 270 236 234 223 212 263 138 161 191 199 154 150 152 164 210 149 225 174 173 164 188 212 198 173 158 167 131 132 136
213 216 217 218 221 220 221 219 213 211 210 214 220 215 205 198 200 176 180 195 195 174 249 273 231 228 240 224 211 217 210 108 104 88 192 223 147 209 185 126 178 168 151 167 258 254 271 230 199 157 119 117 122 131
211 213 213 215 215 214 214 214 210 207 210 217 218 204 197 190 176 179 166 219 209 197 287 303 310 273 239 221 215 192 141 146 164 165 224 241 122 140 63 105 197 195 166 177 211 194 181 153 165 149 140 143 141 131
210 210 209 210 210 209 207 207 202 205 209 211 198 194 195 160 171 136 248 222 201 163 281 274 286 247 223 207 207 195 176 125 130 144 221 239 286 153 155 193 237 197 197 178 175 124 77 104 122 142 135 138 133 130
206 208 206 206 204 203 201 200 198 198 200 192 195 192 167 168 166 190 181 118 160 148 240 257 259 251 236 193 141 172 147 148 137 166 226 266 193 182 141 188 219 202 195 151 133 120 93 163 151 131 126 120 114 113
203 206 202 200 199 197 196 195 192 188 185 181 173 176 168 172 121 287 244 210 140 184 228 239 262 279 224 182 137 155 129 131 131 152 154 214 167 174 235 212 200 147 147 146 159 41 116 120 122 123 125 127 121 123
200 200 197 194 194 191 189 186 184 179 174 171 162 165 144 109 150 226 181 146 85 244 210 227 216 231 174 219 166 117 117 106 166 139 210 135 188 221 213 174 189 183 174 155 112 113 127 131 135 138 137 135 127 132
198 195 190 189 188 185 183 180 175 168 175 161 122 125 129 208 198 155 153 135 141 229 243 243 210 232 125 317 134 90 86 140 159 208 120 203 247 236 207 212 201 154 140 136 123 130 138 142 147 147 146 140 132 135
191 190 186 184 182 179 177 174 164 163 147 92 133 174 238 182 128 131 168 170 209 220 211 200 193 163 134 228 182 161 133 185 153 178 185 206 239 231 206 208 178 162 166 175 107 149 166 150 147 141 136 133 132 134
183 190 184 178 176 174 170 169 162 161 163 169 143 135 169 168 149 146 188 209 218 237 201 169 179 174 103 207 160 148 119 169 175 134 173 236 242 217 193 196 164 158 157 145 132 134 136 139 137 132 131 131 132 130
180 182 176 173 172 170 167 165 160 160 129 82 80 119 129 191 195 199 185 209 223 211 189 154 175 138 175 198 95 142 124 148 127 135 218 236 222 164 137 126 127 133 125 116 119 121 124 125 128 130 128 128 129 130
176 176 172 171 170 167 167 158 164 159 94 114 135 145 188 184 224 216 191 205 211 192 170 162 115 133 184 102 127 153 111 140 170 216 227 242 194 155 140 135 133 133 129 125 127 129 128 126 124 123 124 129 130 131
172 171 168 170 169 168 166 161 166 95 111 142 149 210 214 203 218 267 273 267 208 173 150 136 94 124 119 112 108 107 113 218 213 230 224 321 118 135 137 135 131 129 128 127 132 130 126 126 122 120 126 129 122 120
170 160 170 170 166 162 158 159 146 78 67 170 224 241 247 201 55 350 291 245 226 170 148 129 137 132 171 137 153 217 170 210 228 219 91 131 127 127 128 126 126 127 128 128 130 128 123 125 125 120 114 116 119 123
166 125 167 165 162 157 150 107 122 155 195 194 236 199 285 296 239 262 298 297 262 169 191 153 165 194 120 161 211 187 208 219 179 118 109 133 133 128 123 121 122 123 125 127 125 122 119 118 119 118 118 124 126 124
152 151 154 161 155 143 112 82 139 169 199 231 244 205 198 218 255 263 232 282 281 179 162 217 134 172 192 203 200 233 161 116 99 119 122 125 124 120 123 123 122 126 126 123 120 123 124 126 124 123 128 128 121 128
149 154 155 160 138 110 128 160 158 181 215 215 213 243 207 237 238 243 248 259 300 279 163 211 217 197 208 210 185 185 151 147 135 117 112 116 121 121 121 119 121 121 121 126 129 127 128 128 129 132 132 136 134 138
151 151 152 148 140 120 121 112 151 170 202 214 223 207 209 216 218 224 231 308 234 217 180 216 236 205 214 319 310 145 132 130 132 125 118 117 121 124 125 126 124 123 119 120 113 119 118 117 123 132 136 140 139 144
135 150 142 145 52 58 110 146 175 199 186 224 195 185 234 223 221 229 253 141 204 189 207 213 235 310 297 252 82 145 134 137 141 134 141 135 132 124 121 122 126 126 124 127 126 122 124 128 133 134 138 133 135 133
123 132 120 107 163 189 196 191 209 171 175 217 178 178 247 218 192 192 178 168 218 149 170 168 153 143 98 96 115 93 108 104 108 108 113 125 131 134 133 139 134 125 125 133 132 128 125 127 131 131 127 126 125 125
118 103 76 135 158 170 246 167 190 190 188 195 147 176 216 234 180 173 153 109 125 134 146 108 106 94 96 100 85 94 115 121 124 128 126 122 122 128 130 130 132 128 125 118 123 125 122 125 123 123 125 127 127 124
79 99 142 180 167 204 211 209 207 200 189 176 179 167 197 207 172 82 183 163 121 129 125 131 124 118 98 84 111 129 125 119 116 118 128 129 126 124 123 121 124 120 119 125 123 121 124 124 131 131 131 132 134 138
110 190 159 186 168 196 200 173 167 174 196 155 160 200 204 206 118 186 200 167 163 152 145 140 131 118 123 133 135 133 133 142 137 130 134 131 121 113 110 108 112 120 131 125 127 127 128 132 132 135 138 139 144 153
126 174 180 176 185 205 189 150 174 193 180 160 169 279 125 190 170 213 194 166 168 166 167 170 152 136 149 151 149 146 143 142 136 125 131 144 143 136 133 130 128 124 136 132 134 136 138 137 139 139 137 143 147 151
144 194 189 212 184 141 128 115 146 168 191 145 118 184 223 168 205 214 289 174 167 173 165 157 156 154 151 142 136 124 126 129 125 118 117 122 132 145 144 147 150 141 138 138 140 143 141 143 145 141 141 148 169 166
148 175 162 160 108 33 134 168 157 192 200 186 126 225 171 171 172 167 188 147 125 126 123 114 108 123 145 157 134 123 112 110 107 104 90 66 58 81 101 105 114 129 127 137 135 134 139 142 141 147 156 161 158 158
128 148 102 71 70 60 103 203 228 221 308 223 167 85 91 39 310 49 93 130 128 125 124 123 118 118 120 120 111 122 136 143 144 146 136 135 131 101 119 122 125 124 130 128 123 132 136 136 142 147 151 147 140 136
153 130 100 91 91 153 232 195 233 233 247 96 110 116 81 51 15 73 132 139 136 134 132 131 135 143 143 140 133 135 147 158 165 149 146 150 144 140 140 134 131 132 128 123 118 110 102 105 109 106 124 133 145 151
143 110 94 105 127 184 209 190 193 102 41 41 27 81 132 159 89 38 60 105 124 133 129 132 131 145 146 151 148 144 146 132 124 125 117 122 132 135 137 138 135 133 130 130 134 138 134 136 144 150 154 157 163 164
53 119 127 105 130 297 50 60 58 62 62 54 47 28 18 31 71 33 149 140 147 147 149 144 144 152 153 142 137 109 113 123 130 134 130 132 135 135 135 133 131 132 135 136 139 142 148 150 157 164 165 170 172 184
83 80 74 91 61 65 33 86 47 71 54 71 67 104 144 185 196 195 161 195 167 152 150 147 140 138 137 126 124 121 119 120 131 133 134 133 134 136 134 136 137 138 136 137 143 148 153 156 160 167 170 175 183 193